EW0734 Weather Reports


time (UTC)temp
F
wind
direction
speed
knots
gust
knots
rain 1hr
in
rain 24hr
in
rain mn
in
humidity
%
barometer
mb
20260903084027 0 0.0 0.0 0.00 0.00 0.00
20260903083032 0 0.0 0.0 0.00 0.00 0.00
20260903082545 0 0.0 0.0 0.00 0.00 0.00
20260903082037 0 0.0 0.0 0.00 0.00 0.00
20260903081527 0 0.0 0.0 0.00 0.00 0.00
20260903080526 0 0.0 0.0 0.00 0.00 0.00
20260903080027 0 0.0 0.0 0.00 0.00 0.00
20260903075621 0 0.0 0.0 0.00 0.00 0.00
20260903075026 0 0.0 0.0 0.00 0.00 0.00
20260903074026 0 0.0 0.0 0.00 0.00 0.00
20260903073532 0 0.0 0.0 0.00 0.00 0.00
20260903073009 0 0.0 0.0 0.00 0.00 0.00
20260903072532 0 0.0 0.0 0.00 0.00 0.00
20260903071552 0 0.0 0.0 0.00 0.00 0.00
20260903071034 0 0.0 0.0 0.00 0.00 0.00
20260903070509 0 0.0 0.0 0.00 0.00 0.00
20260903070026 0 0.0 0.0 0.00 0.00 0.00
20260903065027 0 0.0 0.0 0.00 0.00 0.00
20260903064533 0 0.0 0.0 0.00 0.00 0.00
20260903064125 0 0.0 0.0 0.00 0.00 0.00
20260903063526 0 0.0 0.0 0.00 0.00 0.00
20260903062526 0 0.0 0.0 0.00 0.00 0.00
20260903062104 0 0.0 0.0 0.00 0.00 0.00
20260903061617 0 0.0 0.0 0.00 0.00 0.00
20260903061026 0 0.0 0.0 0.00 0.00 0.00
20260903060027 0 0.0 0.0 0.00 0.00 0.00
20260903055537 0 0.0 0.0 0.00 0.00 0.00 78
20260903055006 71 0.0 0.0 0.00 0.00 0.00 78 1015.6
20260903054528 71 0.0 0.0 0.00 0.00 0.00 77 1015.7
20260903053529 71 0.0 0.0 0.00 0.00 0.00 82 1015.7
20260903052528 71 0.0 0.0 0.00 0.00 0.00 84 1015.7
20260903051529 71 0.0 0.0 0.00 0.00 0.00 85 1015.8
20260903050528 72 0.0 0.0 0.00 0.00 0.00 83 1015.9
20260903045529 72 0.0 0.0 0.00 0.00 0.00 83 1015.9
20260903044528 72 0.0 0.0 0.00 0.00 0.00 85 1015.9
20260903043528 72 0.0 0.0 0.00 0.00 0.00 85 1015.9
20260903042548 72 0.0 0.0 0.00 0.00 0.00 86 1016.0
20260903041529 72 0.0 0.0 0.00 0.00 0.00 87 1015.9
20260903040538 72 0.0 0.0 0.00 0.00 0.00 88 1015.8
20260903035528 72 0.0 0.0 0.00 0.00 0.00 89 1015.9
20260903034529 72 0.0 0.0 0.00 0.00 0.00 90 1015.8
20260903033550 72 0.0 0.0 0.00 0.00 0.00 90 1015.7
20260903032528 73 0.0 0.0 0.00 0.00 0.00 90 1015.6
20260903031528 73 0.0 0.0 0.00 0.00 0.00 91 1015.4
20260903030529 73 0.0 0.0 0.00 0.00 0.00 91 1015.4
20260903025528 73 0.0 0.0 0.00 0.00 0.00 91 1015.3
20260903024528 73 0.0 0.0 0.00 0.00 0.00 92 1015.3
20260903023527 73 0.0 0.0 0.00 0.00 0.00 92 1015.1
20260903022528 73 0.0 0.0 0.00 0.00 0.00 93 1015.2
20260903021528 73 0.0 0.0 0.00 0.00 0.00 93 1015.1
20260903020529 73 0.0 0.0 0.00 0.00 0.00 92 1015.5
20260903015548 73 0.0 0.0 0.00 0.00 0.00 92 1015.6
20260903014528 74 0.0 0.0 0.00 0.00 0.00 92 1015.8
20260903013527 74 0.0 0.0 0.00 0.00 0.00 92 1015.8
20260903012548 74 0.0 0.0 0.00 0.00 0.00 92 1015.6
20260903011528 74 0.0 0.0 0.00 0.00 0.00 92 1015.6
20260903010548 74 0.0 0.0 0.00 0.00 0.00 91 1015.9
20260903005529 74 0.0 0.0 0.00 0.00 0.00 91 1016.0
20260903004529 74 0.0 0.0 0.00 0.00 0.00 91 1015.8
20260903003528 74 0.0 0.0 0.00 0.00 0.00 90 1015.8
20260903002528 75 0.0 0.0 0.00 0.00 0.00 90 1015.5
20260903001528 75 0.0 0.0 0.00 0.00 0.00 90 1015.5
20260903000528 75 0.0 0.0 0.00 0.00 0.00 90 1015.6
20260902235548 75 0.0 0.0 0.00 0.00 0.00 90 1015.6
20260902234528 75 0.0 0.0 0.00 0.00 0.00 89 1015.2
20260902233607 76 0.0 0.0 0.00 0.00 0.00 89 1015.4
20260902232529 76 0.0 0.0 0.00 0.00 0.00 88 1015.8
20260902231528 76 0.0 0.0 0.00 0.00 0.00 88 1015.9
20260902230528 77 0.0 0.0 0.00 0.00 0.00 88 1016.1
20260902225528 77 0.0 0.0 0.00 0.00 0.00 87 1016.3
20260902224528 77 0.0 0.0 0.00 0.00 0.00 87 1016.2
20260902223527 77 0.0 0.0 0.00 0.00 0.00 87 1016.1
20260902222527 77 0.0 0.0 0.00 0.00 0.00 87 1016.4
20260902221528 77 0.0 0.0 0.00 0.00 0.00 87 1016.5
20260902220528 77 0.0 0.0 0.00 0.00 0.00 86 1015.7
20260902215527 77 0.0 0.0 0.00 0.00 0.00 86 1015.6
20260902214547 77 0.0 0.0 0.00 0.00 0.00 86 1015.8
20260902213527 77 0.0 0.0 0.00 0.00 0.00 85 1015.5
20260902212528 77 0.0 0.0 0.00 0.00 0.00 84 1015.8
20260902211549 78 0.0 0.0 0.00 0.00 0.00 83 1016.0
20260902210529 78 0.0 0.0 0.00 0.00 0.00 83 1015.9
20260902205527 79 0.0 0.0 0.00 0.00 0.00 82 1016.3
20260902204527 80 0.0 0.0 0.00 0.00 0.00 80 1016.5
20260902203530 80 0.0 0.0 0.00 0.00 0.00 80 1016.2
20260902202530 81 0.0 0.0 0.00 0.00 0.00 79 1016.4
20260902201527 81 0.0 0.0 0.00 0.00 0.00 80 1016.5
20260902200528 82 0.0 0.0 0.00 0.00 0.00 78 1016.3
20260902195527 83 0.0 0.0 0.00 0.00 0.00 76 1016.5
20260902194529 84 0.0 0.0 0.00 0.00 0.00 75 1016.9
20260902193530 86 0.0 0.0 0.00 0.00 0.00 71 1016.6
20260902192549 92 0.0 0.0 0.00 0.00 0.00 64 1016.7
20260902191529 93 0.0 0.0 0.00 0.00 0.00 68 1015.9
20260902190529 93 0.0 0.0 0.00 0.00 0.00 65 1015.5
20260902185529 94 0.0 0.0 0.00 0.00 0.00 65 1015.8
20260902184548 94 0.0 0.0 0.00 0.00 0.00 64 1016.3
20260902183530 94 0.0 0.0 0.00 0.00 0.00 65 1016.3
20260902182530 93 0.0 0.0 0.00 0.00 0.00 65 1016.1
20260902181530 93 0.0 0.0 0.00 0.00 0.00 67 1015.9
20260902180530 94 0.0 0.0 0.00 0.00 0.00 64 1016.0
20260902175529 93 0.0 0.0 0.00 0.00 0.00 65 1016.2
20260902174550 94 0.0 0.0 0.00 0.00 0.00 65 1016.2
20260902173529 93 0.0 0.0 0.00 0.00 0.00 66 1016.3
20260902172529 93 0.0 0.0 0.00 0.00 0.00 63 1016.3
20260902171550 93 0.0 0.0 0.00 0.00 0.00 64 1016.4
20260902170528 93 0.0 0.0 0.00 0.00 0.00 63 1016.4
20260902165529 93 0.0 0.0 0.00 0.00 0.00 64 1016.6
20260902164529 93 0.0 0.0 0.00 0.00 0.00 65 1016.5
20260902163529 92 0.0 0.0 0.00 0.00 0.00 67 1016.5
20260902162530 91 0.0 0.0 0.00 0.00 0.00 65 1016.6
20260902161529 91 0.0 0.0 0.00 0.00 0.00 67 1016.6
20260902160528 92 0.0 0.0 0.00 0.00 0.00 63 1016.5
20260902155529 91 0.0 0.0 0.00 0.00 0.00 65 1016.4
20260902154529 91 0.0 0.0 0.00 0.00 0.00 64 1016.5
20260902153529 91 0.0 0.0 0.00 0.00 0.00 67 1016.5
20260902152529 91 0.0 0.0 0.00 0.00 0.00 65 1016.5
20260902151550 91 0.0 0.0 0.00 0.00 0.00 65 1016.6
20260902150534 90 0.0 0.0 0.00 0.00 0.00 69 1016.6
20260902145529 90 0.0 0.0 0.00 0.00 0.00 68 1016.7
20260902144529 89 0.0 0.0 0.00 0.00 0.00 71 1016.7
20260902143529 88 0.0 0.0 0.00 0.00 0.00 72 1016.8
20260902142549 88 0.0 0.0 0.00 0.00 0.00 75 1016.5
20260902141529 88 0.0 0.0 0.00 0.00 0.00 72 1016.4
20260902140528 88 0.0 0.0 0.00 0.00 0.00 73 1016.5
20260902135530 88 0.0 0.0 0.00 0.00 0.00 75 1016.5
20260902134529 87 0.0 0.0 0.00 0.00 0.00 75 1016.4
20260902133528 85 0.0 0.0 0.00 0.00 0.00 80 1016.3
20260902132528 84 0.0 0.0 0.00 0.00 0.00 82 1016.4
20260902131528 81 0.0 0.0 0.00 0.00 0.00 86 1016.1
20260902130528 79 0.0 0.0 0.00 0.00 0.00 89 1016.2
20260902125529 78 0.0 0.0 0.00 0.00 0.00 91 1016.2
20260902124529 77 0.0 0.0 0.00 0.00 0.00 92 1016.2
20260902123529 76 0.0 0.0 0.00 0.00 0.00 92 1016.1
20260902122529 75 0.0 0.0 0.00 0.00 0.00 92 1016.2
20260902121528 74 0.0 0.0 0.00 0.00 0.00 92 1016.3
20260902120529 74 0.0 0.0 0.00 0.00 0.00 91 1016.3
20260902120056 0 0.0 0.0 0.00 0.00 0.00
20260902115527 0 0.0 0.0 0.00 0.00 0.00
20260902114527 0 0.0 0.0 0.00 0.00 0.00
20260902114046 0 0.0 0.0 0.00 0.00 0.00
20260902113622 0 0.0 0.0 0.00 0.00 0.00
20260902113027 0 0.0 0.0 0.00 0.00 0.00
20260902112047 0 0.0 0.0 0.00 0.00 0.00
20260902111526 0 0.0 0.0 0.00 0.00 0.00
20260902111141 0 0.0 0.0 0.00 0.00 0.00
20260902110527 0 0.0 0.0 0.00 0.00 0.00
20260902105547 0 0.0 0.0 0.00 0.00 0.00
20260902105100 0 0.0 0.0 0.00 0.00 0.00
20260902104509 0 0.0 0.0 0.00 0.00 0.00
20260902104027 0 0.0 0.0 0.00 0.00 0.00
20260902103027 0 0.0 0.0 0.00 0.00 0.00
20260902102613 0 0.0 0.0 0.00 0.00 0.00
20260902102050 0 0.0 0.0 0.00 0.00 0.00
20260902101527 0 0.0 0.0 0.00 0.00 0.00
20260902100527 0 0.0 0.0 0.00 0.00 0.00
20260902100027 0 0.0 0.0 0.00 0.00 0.00
20260902095626 0 0.0 0.0 0.00 0.00 0.00
20260902095050 0 0.0 0.0 0.00 0.00 0.00
20260902094028 0 0.0 0.0 0.00 0.00 0.00
20260902093526 0 0.0 0.0 0.00 0.00 0.00
20260902093120 0 0.0 0.0 0.00 0.00 0.00
20260902092527 0 0.0 0.0 0.00 0.00 0.00
20260902091526 0 0.0 0.0 0.00 0.00 0.00
20260902091007 0 0.0 0.0 0.00 0.00 0.00
20260902090603 0 0.0 0.0 0.00 0.00 0.00
20260902090047 0 0.0 0.0 0.00 0.00 0.00
20260902085026 0 0.0 0.0 0.00 0.00 0.00
20260902084637 0 0.0 0.0 0.00 0.00 0.00